Location: Cañada de la Miga
(34.7595°N, 106.2317°W)
Time: 22:34:55
(UTC+00:00)

Transit 4A - Pass Details

Date: 03 December 2021
Orbit: 864 x 980 km, 66.8° (Epoch: 16 January)

Event Time Altitude Azimuth Distance (km) Brightness Sun altitude
Rises 13:30:33 0° 309° (NW) 3,649 - -5.6°
Exits shadow 13:32:47 - 297° (WNW) 3,078 9.9 -5.2°
Reaches altitude 10° 13:34:42 10° 283° (WNW) 2,714 9.7 -4.8°
Maximum altitude 13:37:21 13° 258° (WSW) 2,511 9.7 -4.3°
Drops below altitude 10° 13:40:01 10° 233° (SW) 2,721 10.1 -3.8°
Sets 13:44:13 0° 207° (SSW) 3,667 11.0 -3.0°
